TimeCST,TemperatureF,Dew PointF,Humidity,Sea Level PressureIn,VisibilityMPH,Wind Direction,Wind SpeedMPH,Gust SpeedMPH,PrecipitationIn,Events,Conditions,WindDirDegrees,DateUTC
12:54 AM,19.9,10.9,68,30.29,10.0,SSE,9.2,-,N/A,,Overcast,160,2013-01-27 06:54:00
1:54 AM,19.9,10.9,68,30.28,10.0,South,8.1,-,N/A,,Overcast,170,2013-01-27 07:54:00
2:54 AM,19.9,12.0,71,30.26,10.0,SSE,9.2,-,N/A,,Overcast,150,2013-01-27 08:54:00
3:54 AM,19.9,12.0,71,30.24,10.0,SSE,8.1,-,N/A,,Overcast,150,2013-01-27 09:54:00
4:54 AM,21.0,12.9,71,30.22,10.0,SSE,10.4,-,N/A,,Overcast,150,2013-01-27 10:54:00
5:54 AM,21.0,12.0,68,30.22,10.0,SSE,8.1,-,N/A,,Mostly Cloudy,150,2013-01-27 11:54:00
6:54 AM,21.0,12.0,68,30.22,10.0,SSE,9.2,-,N/A,,Overcast,150,2013-01-27 12:54:00
7:54 AM,21.9,12.9,68,30.21,10.0,SSE,10.4,-,N/A,,Overcast,150,2013-01-27 13:54:00
8:54 AM,24.1,14.0,65,30.21,10.0,SE,9.2,-,N/A,,Overcast,140,2013-01-27 14:54:00
9:54 AM,25.0,14.0,63,30.20,10.0,SSE,11.5,-,N/A,,Overcast,150,2013-01-27 15:54:00
10:54 AM,27.0,16.0,63,30.11,10.0,SSE,11.5,-,N/A,,Mostly Cloudy,150,2013-01-27 16:54:00
11:54 AM,27.0,17.1,66,30.15,9.0,SSE,13.8,-,0.00,,Overcast,150,2013-01-27 17:54:00
12:47 PM,26.6,19.4,74,30.04,2.0,SE,10.4,-,0.00,Snow,Light Snow,140,2013-01-27 18:47:00
12:54 PM,27.0,19.9,75,30.11,4.0,SE,11.5,-,0.00,Snow,Light Snow,130,2013-01-27 18:54:00
1:17 PM,28.4,21.2,74,30.04,5.0,SE,12.7,-,0.01,Snow,Light Snow,140,2013-01-27 19:17:00
1:23 PM,26.6,21.2,80,30.03,1.5,SE,10.4,-,0.01,Snow,Light Snow,140,2013-01-27 19:23:00
1:28 PM,26.6,21.2,80,30.03,0.8,SE,9.2,-,0.01,Snow,Light Snow,130,2013-01-27 19:28:00
1:54 PM,26.1,23.0,88,30.09,0.5,ESE,10.4,-,0.01,Fog-Snow,Snow,120,2013-01-27 19:54:00
2:05 PM,26.6,23.0,86,30.02,0.5,ESE,12.7,-,0.01,Fog-Snow,Snow,110,2013-01-27 20:05:00
2:31 PM,26.6,23.0,86,30.00,0.5,ESE,11.5,-,0.01,Fog-Snow,Snow,120,2013-01-27 20:31:00
2:46 PM,26.6,24.8,93,30.00,0.2,ESE,10.4,-,0.02,Fog-Snow,Heavy Snow,110,2013-01-27 20:46:00
2:54 PM,26.1,24.1,92,30.06,0.2,ESE,11.5,-,0.03,Fog-Snow,Heavy Snow,120,2013-01-27 20:54:00
3:15 PM,26.6,24.8,93,29.98,0.2,ESE,12.7,-,0.01,Fog-Snow,Heavy Snow,110,2013-01-27 21:15:00
3:26 PM,26.6,24.8,93,29.98,0.2,ESE,12.7,-,0.02,Fog-Snow,Heavy Snow,110,2013-01-27 21:26:00
3:54 PM,26.1,24.1,92,30.02,0.2,ESE,12.7,-,0.03,Fog-Snow,Snow,110,2013-01-27 21:54:00
4:01 PM,26.6,24.8,93,29.95,0.5,ESE,12.7,-,0.00,Fog-Snow,Snow,110,2013-01-27 22:01:00
4:54 PM,27.0,25.0,92,29.99,0.5,ESE,15.0,-,0.01,Fog-Snow,Snow,110,2013-01-27 22:54:00
5:09 PM,26.6,24.8,93,29.92,1.2,ESE,16.1,-,0.01,Snow,Light Snow,120,2013-01-27 23:09:00
5:17 PM,26.6,24.8,93,29.92,2.0,ESE,13.8,-,0.01,Snow,Light Snow,120,2013-01-27 23:17:00
5:50 PM,28.4,26.6,93,29.90,3.0,ESE,15.0,-,0.01,,Overcast,120,2013-01-27 23:50:00
5:54 PM,28.0,26.1,92,29.96,3.0,SE,15.0,-,0.02,,Overcast,130,2013-01-27 23:54:00
6:03 PM,28.4,26.6,93,29.90,3.0,SE,15.0,-,0.00,Rain,Light Freezing Rain,130,2013-01-28 00:03:00
6:35 PM,28.4,26.6,93,29.90,4.0,SE,12.7,-,0.00,,Overcast,130,2013-01-28 00:35:00
6:54 PM,28.9,27.0,92,29.96,3.0,SE,16.1,21.9,0.00,Rain,Light Freezing Rain,140,2013-01-28 00:54:00
7:09 PM,28.4,26.6,93,29.89,3.0,SE,16.1,21.9,0.00,Rain,Light Freezing Rain,140,2013-01-28 01:09:00
7:43 PM,28.4,26.6,93,29.88,2.5,SE,12.7,-,0.00,Rain,Light Freezing Rain,140,2013-01-28 01:43:00
7:54 PM,28.9,27.0,92,29.93,3.0,SE,13.8,-,0.00,Rain,Light Freezing Rain,130,2013-01-28 01:54:00
8:54 PM,28.9,27.0,92,29.90,3.0,SE,10.4,-,0.00,Rain,Light Freezing Rain,140,2013-01-28 02:54:00
9:04 PM,28.4,26.6,93,29.85,3.0,SE,11.5,-,0.00,,Overcast,140,2013-01-28 03:04:00
9:54 PM,28.9,28.0,96,29.89,2.5,SE,8.1,-,0.00,,Overcast,140,2013-01-28 03:54:00
10:26 PM,28.4,28.4,100,29.83,3.0,SE,6.9,-,N/A,,Overcast,140,2013-01-28 04:26:00
10:52 PM,28.4,28.4,100,29.82,2.5,SE,6.9,-,N/A,,Overcast,130,2013-01-28 04:52:00
10:54 PM,28.9,28.0,96,29.87,3.0,SE,5.8,-,N/A,,Overcast,130,2013-01-28 04:54:00
11:41 PM,28.4,28.4,100,29.81,2.5,SE,6.9,-,N/A,,Overcast,140,2013-01-28 05:41:00
11:54 PM,28.9,28.0,96,29.86,2.0,ESE,8.1,-,N/A,,Overcast,120,2013-01-28 05:54:00